Weather History for Paris, IL

Change the Weather History Date:

Friday, October 4, 2013

  Actual Average (KHUF) Record (KHUF)
Temperature  
Mean Temperature 74 °F 58 °F  
Max Temperature 86 °F 71 °F 94 °F (1954)
Min Temperature 63 °F 46 °F 32 °F (1970)
Degree Days  
Heating Degree Days 0 8  
Month to date heating degree days 29  
Since 1 July heating degree days 107  
Cooling Degree Days 9 1  
Month to date cooling degree days 4  
Year to date cooling degree days 982  
Growing Degree Days 24 (Base 50)    
Moisture  
Dew Point 67 °F    
Average Humidity 80    
Maximum Humidity 97    
Minimum Humidity 55    
Precipitation  
Precipitation 0.00 in 0.11 in 1.84 in (1990)
Month to date precipitation 0.44  
Year to date precipitation 35.14  
Sea Level Pressure  
Sea Level Pressure 30.01 in    
Wind  
Wind Speed 4 mph (South)    
Max Wind Speed 14 mph    
Max Gust Speed 21 mph    
Visibility 10 miles    
Events      
T = Trace of Precipitation, MM = Missing Value Source: NWS Daily Summary

Daily Weather History Graph

Daily Weather History Graph

Search for Another Location

Airport:

Trip Planner

Search our weather history database for the weather conditions in past years. The results will help you decide how hot, cold, wet, or windy it might be!

Date:

Astronomy

Oct. 04, 2013 Rise Set
Actual Time 6:50 AM CDT 6:27 PM CDT
Civil Twilight 6:23 AM CDT 6:54 PM CDT
Nautical Twilight 5:51 AM CDT 7:25 PM CDT
Astronomical Twilight 5:20 AM CDT 7:57 PM CDT
Moon 6:25 AM CDT (10/4) 6:10 PM CDT (10/4)
Length of Visible Light 12h 31m
Length of Day
11h 37m
Waning Crescent, 0% of the Moon is Illuminated
Oct 4
Waning Crescent
Oct 4
New
Oct 11
First Quarter
Oct 18
Full
Oct 26
Last Quarter

Hourly Weather History & Observations

Time (CDT) Temp. Heat Index Dew Point Humidity Pressure Visibility Wind Dir Wind Speed Gust Speed Precip Events Conditions
12:15 AM 65.3 °F - 63.9 °F 95% 30.01 in 10.0 mi Calm Calm - N/A   Mostly Cloudy
12:35 AM 65.3 °F - 63.9 °F 95% 30.01 in 10.0 mi Calm Calm - N/A   Mostly Cloudy
12:55 AM 64.9 °F - 64.0 °F 97% 30.01 in 10.0 mi Calm Calm - N/A   Scattered Clouds
1:15 AM 64.9 °F - 64.0 °F 97% 30.01 in 10.0 mi ESE 3.5 mph - N/A   Clear
1:35 AM 64.8 °F - 63.9 °F 97% 30.01 in 10.0 mi ESE 3.5 mph - N/A   Clear
1:55 AM 64.8 °F - 63.9 °F 97% 30.02 in 10.0 mi Calm Calm - N/A   Clear
2:15 AM 64.6 °F - 63.7 °F 97% 30.02 in 10.0 mi Calm Calm - N/A   Scattered Clouds
2:35 AM 64.4 °F - 63.5 °F 97% 30.01 in 10.0 mi Calm Calm - N/A   Clear
2:55 AM 64.4 °F - 63.5 °F 97% 30.01 in 10.0 mi SSE 3.5 mph - N/A   Scattered Clouds
3:15 AM 64.0 °F - 63.1 °F 97% 30.00 in 10.0 mi Calm Calm - N/A   Scattered Clouds
3:35 AM 63.7 °F - 62.8 °F 97% 29.99 in 10.0 mi Calm Calm - N/A   Clear
3:55 AM 63.7 °F - 63.0 °F 97% 29.99 in 10.0 mi Calm Calm - N/A   Clear
4:15 AM 64.4 °F - 63.5 °F 97% 30.00 in 10.0 mi Calm Calm - N/A   Mostly Cloudy
4:35 AM 65.3 °F - 64.4 °F 97% 30.00 in 10.0 mi South 3.5 mph - N/A   Overcast
4:55 AM 66.4 °F - 65.1 °F 96% 30.01 in 10.0 mi South 3.5 mph - N/A   Overcast
5:15 AM 67.3 °F - 65.5 °F 94% 30.01 in 10.0 mi South 4.6 mph - N/A   Overcast
5:35 AM 68.0 °F - 65.5 °F 92% 30.02 in 10.0 mi South 4.6 mph - N/A   Overcast
5:55 AM 67.5 °F - 65.1 °F 92% 30.02 in 10.0 mi South 3.5 mph - N/A   Mostly Cloudy
6:15 AM 66.7 °F - 64.8 °F 93% 30.03 in 10.0 mi South 3.5 mph - N/A   Scattered Clouds
6:35 AM 67.5 °F - 65.7 °F 94% 30.03 in 10.0 mi South 3.5 mph - N/A   Overcast
6:55 AM 68.4 °F - 66.2 °F 93% 30.03 in 10.0 mi South 4.6 mph - N/A   Overcast
7:15 AM 67.6 °F - 65.7 °F 93% 30.03 in 10.0 mi Calm Calm - N/A   Mostly Cloudy
7:35 AM 67.6 °F - 66.0 °F 95% 30.03 in 10.0 mi South 3.5 mph - N/A   Scattered Clouds
7:55 AM 70.0 °F - 67.5 °F 92% 30.03 in 10.0 mi SSW 4.6 mph - N/A   Clear
8:15 AM 71.6 °F - 68.0 °F 88% 30.03 in 10.0 mi SSW 8.1 mph - N/A   Clear
8:35 AM 72.9 °F - 68.4 °F 86% 30.03 in 10.0 mi SSW 8.1 mph - N/A   Clear
8:55 AM 73.4 °F - 68.2 °F 84% 30.03 in 10.0 mi South 9.2 mph - N/A   Clear
9:15 AM 74.1 °F - 68.2 °F 82% 30.04 in 10.0 mi SSW 10.4 mph - N/A   Scattered Clouds
9:35 AM 75.6 °F - 68.9 °F 80% 30.04 in 10.0 mi South 8.1 mph - N/A   Scattered Clouds
9:55 AM 76.5 °F - 68.7 °F 77% 30.04 in 10.0 mi South 8.1 mph - N/A   Scattered Clouds
10:15 AM 76.8 °F - 68.9 °F 76% 30.04 in 10.0 mi SSW 9.2 mph - N/A   Mostly Cloudy
10:35 AM 78.6 °F - 69.6 °F 74% 30.04 in 10.0 mi South 11.5 mph - N/A   Overcast
10:55 AM 80.4 °F 83.5 °F 69.4 °F 69% 30.04 in 10.0 mi South 9.2 mph - N/A   Scattered Clouds
11:15 AM 81.5 °F 84.6 °F 68.7 °F 65% 30.03 in 10.0 mi South 10.4 mph - N/A   Scattered Clouds
11:35 AM 83.3 °F 86.6 °F 68.7 °F 61% 30.03 in 10.0 mi South 9.2 mph - N/A   Scattered Clouds
11:55 AM 83.8 °F 87.0 °F 68.2 °F 59% 30.03 in 10.0 mi SSW 8.1 mph - N/A   Scattered Clouds
12:15 PM 84.6 °F 87.6 °F 67.8 °F 57% 30.02 in 10.0 mi South 9.2 mph - N/A   Scattered Clouds
12:35 PM 85.1 °F 88.2 °F 68.0 °F 56% 30.02 in 10.0 mi SSE 8.1 mph - N/A   Scattered Clouds
12:55 PM 84.0 °F 87.0 °F 67.6 °F 58% 30.02 in 10.0 mi South 8.1 mph 16.1 mph N/A   Scattered Clouds
1:15 PM 82.6 °F 85.1 °F 67.1 °F 59% 30.01 in 10.0 mi South 8.1 mph - N/A   Mostly Cloudy
1:35 PM 83.7 °F 86.7 °F 68.0 °F 59% 30.00 in 10.0 mi South 10.4 mph - N/A   Scattered Clouds
1:55 PM 85.8 °F 89.1 °F 68.2 °F 55% 29.99 in 10.0 mi SSW 9.2 mph - N/A   Scattered Clouds
2:15 PM 83.8 °F 87.0 °F 68.4 °F 59% 29.99 in 10.0 mi SSE 12.7 mph 16.1 mph N/A   Mostly Cloudy
2:35 PM 83.3 °F 86.4 °F 68.2 °F 60% 29.98 in 10.0 mi SSE 10.4 mph 20.7 mph N/A   Overcast
2:55 PM 82.8 °F 86.0 °F 68.7 °F 62% 29.98 in 10.0 mi SSE 13.8 mph 17.3 mph N/A   Overcast
3:15 PM 83.1 °F 86.3 °F 68.5 °F 61% 29.98 in 10.0 mi South 8.1 mph 16.1 mph N/A   Mostly Cloudy
3:35 PM 83.3 °F 86.6 °F 68.4 °F 61% 29.97 in 10.0 mi SSE 13.8 mph 18.4 mph N/A   Mostly Cloudy
3:55 PM 84.0 °F 87.6 °F 68.5 °F 60% 29.98 in 10.0 mi SSE 9.2 mph - N/A   Scattered Clouds
4:15 PM 84.4 °F 87.3 °F 67.8 °F 57% 29.98 in 10.0 mi South 10.4 mph - N/A   Scattered Clouds
4:35 PM 84.2 °F 87.3 °F 68.2 °F 58% 29.97 in 10.0 mi SSE 10.4 mph - N/A   Scattered Clouds
4:55 PM 83.3 °F 86.4 °F 68.0 °F 60% 29.97 in 10.0 mi SSE 9.2 mph - N/A   Clear
5:15 PM 82.4 °F 85.4 °F 68.0 °F 62% 29.97 in 10.0 mi SSE 9.2 mph - N/A   Clear
5:35 PM 82.8 °F 85.3 °F 67.3 °F 59% 29.98 in 10.0 mi South 10.4 mph - N/A   Clear
5:55 PM 81.3 °F 84.1 °F 68.0 °F 64% 29.98 in 10.0 mi SSE 9.2 mph - N/A   Clear
6:15 PM 79.7 °F - 68.2 °F 68% 29.98 in 10.0 mi SSE 6.9 mph - N/A   Clear
6:35 PM 78.3 °F - 68.5 °F 72% 29.99 in 10.0 mi SSE 4.6 mph - N/A   Scattered Clouds
6:55 PM 76.3 °F - 68.4 °F 76% 29.99 in 10.0 mi SSE 4.6 mph - N/A   Scattered Clouds
7:15 PM 74.7 °F - 68.2 °F 80% 29.99 in 10.0 mi SE 3.5 mph - N/A   Clear
7:35 PM 74.3 °F - 68.5 °F 82% 29.99 in 10.0 mi SE 4.6 mph - N/A   Clear
7:55 PM 74.5 °F - 68.7 °F 82% 30.00 in 10.0 mi SE 3.5 mph - N/A   Clear
8:15 PM 73.4 °F - 68.9 °F 86% 30.00 in 10.0 mi ESE 3.5 mph - N/A   Clear
8:35 PM 73.4 °F - 68.5 °F 85% 30.00 in 10.0 mi SE 4.6 mph - N/A   Clear
8:55 PM 72.0 °F - 68.2 °F 88% 30.01 in 10.0 mi SE 5.8 mph - N/A   Clear
9:15 PM 72.5 °F - 68.4 °F 87% 30.01 in 10.0 mi SE 4.6 mph - N/A   Clear
9:35 PM 71.2 °F - 68.0 °F 89% 30.02 in 10.0 mi SSE 4.6 mph - N/A   Clear
9:55 PM 72.1 °F - 68.5 °F 88% 30.02 in 10.0 mi South 4.6 mph - N/A   Scattered Clouds
10:15 PM 72.7 °F - 68.9 °F 88% 30.02 in 10.0 mi South 5.8 mph - N/A   Scattered Clouds
10:35 PM 72.5 °F - 68.9 °F 88% 30.02 in 10.0 mi South 4.6 mph - N/A   Scattered Clouds
10:55 PM 72.7 °F - 68.9 °F 88% 30.02 in 10.0 mi South 4.6 mph - N/A   Clear
11:15 PM 72.9 °F - 68.9 °F 87% 30.02 in 10.0 mi South 5.8 mph - N/A   Scattered Clouds
11:35 PM 72.9 °F - 68.2 °F 85% 30.02 in 10.0 mi South 4.6 mph - N/A   Scattered Clouds
11:55 PM 71.2 °F - 68.0 °F 89% 30.01 in 10.0 mi South 4.6 mph - N/A   Scattered Clouds